| time (UTC) | temp F | wind direction | speed MPH | gust MPH | rain 1hr in | rain 24hr in | rain mn in | humidity % | barometer mb |
| 20260505130130 | 63 | 172 | 1.0 | 2.0 | 0.00 | 0.00 | 0.00 | 87 | 1017.8 |
| 20260505124619 | 60 | 128 | 0.0 | 0.0 | 0.00 | 0.00 | 0.00 | 91 | 1017.6 |
| 20260505124116 | 59 | 152 | 0.0 | 0.0 | 0.00 | 0.00 | 0.00 | 92 | 1017.7 |
| 20260505123612 | 58 | 140 | 0.0 | 0.0 | 0.00 | 0.00 | 0.00 | 93 | 1017.7 |
| 20260505123108 | 57 | 132 | 0.0 | 0.0 | 0.00 | 0.00 | 0.00 | 94 | 1017.7 |
| 20260505122605 | 57 | 136 | 0.0 | 0.0 | 0.00 | 0.00 | 0.00 | 95 | 1017.7 |
| 20260505122102 | 56 | 268 | 0.0 | 0.0 | 0.00 | 0.00 | 0.00 | 96 | 1017.6 |
| 20260505121553 | 56 | 136 | 0.0 | 0.0 | 0.00 | 0.00 | 0.00 | 98 | 1017.3 |
| 20260505121050 | 55 | 195 | 0.0 | 0.0 | 0.00 | 0.00 | 0.00 | 99 | 1017.2 |
| 20260505120546 | 55 | 141 | 0.0 | 0.0 | 0.00 | 0.00 | 0.00 | 99 | 1017.0 |
| 20260505120042 | 54 | 186 | 0.0 | 0.0 | 0.00 | 0.00 | 0.00 | 99 | 1017.4 |
| 20260505115536 | 53 | 296 | 0.0 | 0.0 | 0.00 | 0.00 | 0.00 | 99 | 1017.3 |
| 20260505115034 | 53 | 303 | 0.0 | 0.0 | 0.00 | 0.00 | 0.00 | 99 | 1017.1 |
| 20260505114531 | 52 | 289 | 0.0 | 0.0 | 0.00 | 0.00 | 0.00 | 99 | 1017.3 |
| 20260505114027 | 52 | 266 | 0.0 | 0.0 | 0.00 | 0.00 | 0.00 | 99 | 1017.2 |
| 20260505113524 | 51 | 265 | 0.0 | 0.0 | 0.00 | 0.00 | 0.00 | 99 | 1017.1 |
| 20260505113020 | 51 | 264 | 0.0 | 0.0 | 0.00 | 0.00 | 0.00 | 99 | 1017.1 |
| 20260505112517 | 51 | 247 | 0.0 | 0.0 | 0.00 | 0.00 | 0.00 | 99 | 1016.8 |
| 20260505112015 | 51 | 284 | 0.0 | 0.0 | 0.00 | 0.00 | 0.00 | 99 | 1016.9 |
| 20260505111508 | 51 | 284 | 0.0 | 0.0 | 0.00 | 0.00 | 0.00 | 99 | 1017.0 |
| 20260505111005 | 51 | 271 | 0.0 | 0.0 | 0.00 | 0.00 | 0.00 | 99 | 1016.9 |
| 20260505110502 | 50 | 308 | 0.0 | 0.0 | 0.00 | 0.00 | 0.00 | 99 | 1016.9 |
| 20260505101933 | 50 | 314 | 0.0 | 0.0 | 0.00 | 0.00 | 0.00 | 99 | 1016.4 |
| 20260505101427 | 50 | 314 | 0.0 | 0.0 | 0.00 | 0.00 | 0.00 | 99 | 1016.6 |
| 20260505100923 | 50 | 305 | 0.0 | 0.0 | 0.00 | 0.00 | 0.00 | 99 | 1016.5 |
| 20260505100420 | 50 | 306 | 0.0 | 0.0 | 0.00 | 0.00 | 0.00 | 99 | 1016.7 |
| 20260505095916 | 50 | 306 | 0.0 | 0.0 | 0.00 | 0.00 | 0.00 | 99 | 1016.5 |
| 20260505095413 | 50 | 305 | 0.0 | 0.0 | 0.00 | 0.00 | 0.00 | 99 | 1016.4 |
| 20260505094909 | 50 | 307 | 0.0 | 0.0 | 0.00 | 0.00 | 0.00 | 99 | 1016.5 |
| 20260505094406 | 50 | 297 | 0.0 | 0.0 | 0.00 | 0.00 | 0.00 | 99 | 1016.7 |
| 20260505093901 | 50 | 309 | 0.0 | 0.0 | 0.00 | 0.00 | 0.00 | 99 | 1016.4 |
| 20260505093359 | 50 | 309 | 0.0 | 0.0 | 0.00 | 0.00 | 0.00 | 99 | 1016.4 |
| 20260505092856 | 51 | 309 | 0.0 | 0.0 | 0.00 | 0.00 | 0.00 | 99 | 1016.6 |
| 20260505092354 | 50 | 309 | 0.0 | 0.0 | 0.00 | 0.00 | 0.00 | 99 | 1016.5 |
| 20260505091851 | 51 | 309 | 0.0 | 0.0 | 0.00 | 0.00 | 0.00 | 99 | 1016.3 |
| 20260505091349 | 51 | 309 | 0.0 | 0.0 | 0.00 | 0.00 | 0.00 | 99 | 1016.5 |
| 20260505090847 | 51 | 309 | 0.0 | 0.0 | 0.00 | 0.00 | 0.00 | 98 | 1016.5 |
| 20260505090345 | 51 | 309 | 0.0 | 0.0 | 0.00 | 0.00 | 0.00 | 98 | 1016.3 |
| 20260505085842 | 51 | 309 | 0.0 | 0.0 | 0.00 | 0.00 | 0.00 | 98 | 1016.2 |
| 20260505085340 | 51 | 309 | 0.0 | 0.0 | 0.00 | 0.00 | 0.00 | 98 | 1016.3 |
| 20260505084837 | 51 | 309 | 0.0 | 0.0 | 0.00 | 0.00 | 0.00 | 98 | 1016.4 |
| 20260505084336 | 51 | 309 | 0.0 | 0.0 | 0.00 | 0.00 | 0.00 | 98 | 1016.2 |
| 20260505083833 | 51 | 309 | 0.0 | 0.0 | 0.00 | 0.00 | 0.00 | 98 | 1016.3 |
| 20260505083330 | 51 | 309 | 0.0 | 0.0 | 0.00 | 0.00 | 0.00 | 97 | 1016.1 |
| 20260505082826 | 51 | 309 | 0.0 | 0.0 | 0.00 | 0.00 | 0.00 | 97 | 1016.1 |
| 20260505082323 | 51 | 309 | 0.0 | 0.0 | 0.00 | 0.00 | 0.00 | 97 | 1016.0 |
| 20260505081819 | 51 | 309 | 0.0 | 0.0 | 0.00 | 0.00 | 0.00 | 97 | 1016.2 |
| 20260505081316 | 51 | 309 | 0.0 | 0.0 | 0.00 | 0.00 | 0.00 | 97 | 1016.2 |
| 20260505080813 | 51 | 309 | 0.0 | 0.0 | 0.00 | 0.00 | 0.00 | 96 | 1016.4 |
| 20260505080309 | 51 | 309 | 0.0 | 0.0 | 0.00 | 0.00 | 0.00 | 96 | 1016.2 |
| 20260505075804 | 52 | 309 | 0.0 | 0.0 | 0.00 | 0.00 | 0.00 | 96 | 1016.1 |
| 20260505075304 | 52 | 309 | 0.0 | 0.0 | 0.00 | 0.00 | 0.00 | 96 | 1016.0 |
| 20260505074759 | 52 | 309 | 0.0 | 0.0 | 0.00 | 0.00 | 0.00 | 96 | 1016.2 |
| 20260505074256 | 52 | 309 | 0.0 | 0.0 | 0.00 | 0.00 | 0.00 | 96 | 1015.9 |
| 20260505073753 | 52 | 309 | 0.0 | 0.0 | 0.00 | 0.00 | 0.00 | 96 | 1016.0 |
| 20260505073251 | 52 | 309 | 0.0 | 0.0 | 0.00 | 0.00 | 0.00 | 95 | 1015.8 |
| 20260505072747 | 52 | 309 | 0.0 | 0.0 | 0.00 | 0.00 | 0.00 | 95 | 1016.0 |
| 20260505072243 | 52 | 309 | 0.0 | 0.0 | 0.00 | 0.00 | 0.00 | 95 | 1016.1 |
| 20260505071739 | 52 | 309 | 0.0 | 0.0 | 0.00 | 0.00 | 0.00 | 94 | 1016.2 |
| 20260505071236 | 52 | 309 | 0.0 | 0.0 | 0.00 | 0.00 | 0.00 | 94 | 1015.9 |
| 20260505070734 | 52 | 309 | 0.0 | 0.0 | 0.00 | 0.00 | 0.00 | 94 | 1016.1 |
| 20260505070230 | 53 | 309 | 0.0 | 0.0 | 0.00 | 0.00 | 0.00 | 94 | 1016.0 |
| 20260505065726 | 53 | 309 | 0.0 | 0.0 | 0.00 | 0.00 | 0.00 | 93 | 1015.8 |
| 20260505065223 | 53 | 309 | 0.0 | 0.0 | 0.00 | 0.00 | 0.00 | 93 | 1015.9 |
| 20260505064720 | 53 | 309 | 0.0 | 0.0 | 0.00 | 0.00 | 0.00 | 92 | 1016.3 |
| 20260505064218 | 53 | 309 | 0.0 | 0.0 | 0.00 | 0.00 | 0.00 | 92 | 1016.0 |
| 20260505063715 | 54 | 309 | 0.0 | 0.0 | 0.00 | 0.00 | 0.00 | 92 | 1016.2 |
| 20260505063211 | 54 | 309 | 0.0 | 0.0 | 0.00 | 0.00 | 0.00 | 91 | 1016.1 |
| 20260505062708 | 54 | 308 | 0.0 | 0.0 | 0.00 | 0.00 | 0.00 | 90 | 1016.0 |
| 20260505062206 | 54 | 309 | 0.0 | 0.0 | 0.00 | 0.00 | 0.00 | 89 | 1016.1 |
| 20260505061702 | 54 | 309 | 0.0 | 0.0 | 0.00 | 0.00 | 0.00 | 88 | 1016.0 |
| 20260505061200 | 54 | 309 | 0.0 | 0.0 | 0.00 | 0.00 | 0.00 | 87 | 1016.3 |
| 20260505060657 | 55 | 309 | 0.0 | 0.0 | 0.00 | 0.00 | 0.00 | 86 | 1016.1 |
| 20260505060154 | 55 | 309 | 0.0 | 0.0 | 0.00 | 0.00 | 0.00 | 85 | 1016.4 |
| 20260505055649 | 56 | 309 | 0.0 | 0.0 | 0.00 | 0.00 | 0.00 | 84 | 1016.1 |
| 20260505055146 | 57 | 309 | 0.0 | 0.0 | 0.00 | 0.00 | 0.00 | 83 | 1016.4 |
| 20260505054643 | 57 | 309 | 0.0 | 0.0 | 0.00 | 0.00 | 0.00 | 81 | 1016.5 |
| 20260505054141 | 58 | 308 | 0.0 | 0.0 | 0.00 | 0.00 | 0.00 | 81 | 1016.4 |
| 20260505053639 | 58 | 66 | 0.0 | 1.0 | 0.00 | 0.00 | 0.00 | 80 | 1016.3 |
| 20260505053135 | 58 | 331 | 0.0 | 0.0 | 0.00 | 0.00 | 0.00 | 79 | 1016.7 |
| 20260505052632 | 59 | 283 | 0.0 | 0.0 | 0.00 | 0.00 | 0.00 | 78 | 1016.6 |
| 20260505052129 | 60 | 176 | 1.0 | 2.0 | 0.00 | 0.00 | 0.00 | 77 | 1016.4 |
| 20260505051626 | 60 | 146 | 1.0 | 2.0 | 0.00 | 0.00 | 0.00 | 77 | 1016.3 |
| 20260505051125 | 60 | 146 | 2.0 | 2.0 | 0.00 | 0.00 | 0.00 | 77 | 1016.5 |
| 20260505050622 | 60 | 168 | 2.0 | 3.0 | 0.00 | 0.00 | 0.00 | 76 | 1016.4 |
| 20260505050120 | 60 | 142 | 2.0 | 2.0 | 0.00 | 0.00 | 0.00 | 75 | 1016.4 |
| 20260505041549 | 61 | 166 | 2.0 | 2.0 | 0.00 | 0.00 | 0.00 | 72 | 1016.7 |
| 20260505041047 | 62 | 152 | 2.0 | 3.0 | 0.00 | 0.00 | 0.00 | 71 | 1016.6 |
| 20260505040544 | 62 | 105 | 3.0 | 3.0 | 0.00 | 0.00 | 0.00 | 71 | 1016.6 |
| 20260505040041 | 62 | 150 | 3.0 | 3.0 | 0.00 | 0.00 | 0.00 | 70 | 1016.7 |
| 20260505035537 | 62 | 155 | 2.0 | 2.0 | 0.00 | 0.00 | 0.00 | 70 | 1016.6 |
| 20260505035034 | 62 | 129 | 2.0 | 2.0 | 0.00 | 0.00 | 0.00 | 70 | 1016.6 |
| 20260505034530 | 62 | 138 | 2.0 | 2.0 | 0.00 | 0.00 | 0.00 | 71 | 1016.5 |
| 20260505034028 | 62 | 134 | 2.0 | 2.0 | 0.00 | 0.00 | 0.00 | 70 | 1016.6 |
| 20260505033525 | 62 | 150 | 2.0 | 2.0 | 0.00 | 0.00 | 0.00 | 70 | 1016.7 |
| 20260505033023 | 62 | 149 | 4.0 | 6.0 | 0.00 | 0.00 | 0.00 | 70 | 1016.7 |
| 20260505032520 | 63 | 168 | 3.0 | 3.0 | 0.00 | 0.00 | 0.00 | 69 | 1016.7 |
| 20260505032016 | 63 | 175 | 3.0 | 3.0 | 0.00 | 0.00 | 0.00 | 68 | 1016.8 |
| 20260505031514 | 63 | 118 | 3.0 | 3.0 | 0.00 | 0.00 | 0.00 | 68 | 1016.9 |
| 20260505031010 | 63 | 133 | 3.0 | 3.0 | 0.00 | 0.00 | 0.00 | 67 | 1016.9 |
| 20260505030507 | 63 | 121 | 1.0 | 2.0 | 0.00 | 0.00 | 0.00 | 69 | 1016.8 |
| 20260505030003 | 63 | 111 | 3.0 | 3.0 | 0.00 | 0.00 | 0.00 | 68 | 1016.8 |
| 20260505025459 | 63 | 170 | 2.0 | 2.0 | 0.00 | 0.00 | 0.00 | 68 | 1017.0 |
| 20260505024958 | 63 | 111 | 1.0 | 2.0 | 0.00 | 0.00 | 0.00 | 69 | 1016.8 |
| 20260505024454 | 64 | 171 | 2.0 | 2.0 | 0.00 | 0.00 | 0.00 | 69 | 1016.8 |
| 20260505023952 | 64 | 119 | 2.0 | 3.0 | 0.00 | 0.00 | 0.00 | 68 | 1016.8 |
| 20260505023449 | 64 | 160 | 1.0 | 2.0 | 0.00 | 0.00 | 0.00 | 68 | 1016.7 |
| 20260505022946 | 64 | 146 | 1.0 | 2.0 | 0.00 | 0.00 | 0.00 | 69 | 1016.6 |
| 20260505022444 | 64 | 127 | 1.0 | 2.0 | 0.00 | 0.00 | 0.00 | 68 | 1016.7 |
| 20260505021941 | 64 | 155 | 3.0 | 5.0 | 0.00 | 0.00 | 0.00 | 69 | 1016.4 |
| 20260505021437 | 64 | 146 | 2.0 | 2.0 | 0.00 | 0.00 | 0.00 | 68 | 1016.5 |
| 20260505020933 | 65 | 136 | 2.0 | 2.0 | 0.00 | 0.00 | 0.00 | 68 | 1016.5 |
| 20260505020428 | 65 | 155 | 3.0 | 3.0 | 0.00 | 0.00 | 0.00 | 68 | 1016.3 |
| 20260505015925 | 65 | 128 | 1.0 | 2.0 | 0.00 | 0.00 | 0.00 | 67 | 1016.6 |
| 20260505015422 | 65 | 145 | 1.0 | 2.0 | 0.00 | 0.00 | 0.00 | 67 | 1016.3 |
| 20260505014920 | 66 | 148 | 3.0 | 3.0 | 0.00 | 0.00 | 0.00 | 66 | 1016.2 |
| 20260505014416 | 66 | 131 | 4.0 | 5.0 | 0.00 | 0.00 | 0.00 | 66 | 1016.1 |
| 20260505013914 | 66 | 115 | 3.0 | 3.0 | 0.00 | 0.00 | 0.00 | 65 | 1016.1 |
| 20260505013410 | 66 | 118 | 3.0 | 3.0 | 0.00 | 0.00 | 0.00 | 65 | 1016.2 |
| 20260505012908 | 66 | 148 | 5.0 | 6.0 | 0.00 | 0.00 | 0.00 | 64 | 1016.1 |
| 20260505012406 | 66 | 156 | 3.0 | 5.0 | 0.00 | 0.00 | 0.00 | 64 | 1016.2 |
| 20260505011902 | 65 | 141 | 4.0 | 5.0 | 0.00 | 0.00 | 0.00 | 64 | 1016.0 |
| 20260505011359 | 64 | 171 | 3.0 | 3.0 | 0.00 | 0.00 | 0.00 | 64 | 1016.2 |
| 20260505010855 | 64 | 135 | 2.0 | 2.0 | 0.00 | 0.00 | 0.00 | 66 | 1016.1 |
| 20260505010351 | 63 | 154 | 3.0 | 3.0 | 0.00 | 0.00 | 0.00 | 64 | 1016.0 |
| 20260505005847 | 62 | 259 | 0.0 | 0.0 | 0.00 | 0.00 | 0.00 | 70 | 1015.8 |
| 20260505005344 | 62 | 295 | 0.0 | 0.0 | 0.00 | 0.00 | 0.00 | 68 | 1015.4 |
| 20260505004842 | 63 | 295 | 0.0 | 0.0 | 0.00 | 0.00 | 0.00 | 68 | 1015.6 |
| 20260505004338 | 63 | 295 | 0.0 | 0.0 | 0.00 | 0.00 | 0.00 | 64 | 1015.6 |
| 20260505003836 | 63 | 295 | 0.0 | 0.0 | 0.00 | 0.00 | 0.00 | 65 | 1015.3 |
| 20260505003333 | 64 | 295 | 0.0 | 0.0 | 0.00 | 0.00 | 0.00 | 64 | 1015.3 |
| 20260505002828 | 64 | 295 | 0.0 | 0.0 | 0.00 | 0.00 | 0.00 | 62 | 1015.3 |
| 20260505002326 | 65 | 295 | 0.0 | 0.0 | 0.00 | 0.00 | 0.00 | 62 | 1015.3 |
| 20260505001824 | 65 | 294 | 0.0 | 0.0 | 0.00 | 0.00 | 0.00 | 61 | 1015.3 |
| 20260505001320 | 66 | 294 | 0.0 | 0.0 | 0.00 | 0.00 | 0.00 | 60 | 1015.2 |
| 20260505000818 | 67 | 293 | 0.0 | 0.0 | 0.00 | 0.00 | 0.00 | 57 | 1015.0 |
| 20260505000316 | 67 | 292 | 0.0 | 0.0 | 0.00 | 0.00 | 0.00 | 54 | 1015.1 |
| 20260504235812 | 68 | 292 | 0.0 | 0.0 | 0.00 | 0.00 | 0.00 | 53 | 1015.0 |
| 20260504235309 | 69 | 292 | 0.0 | 0.0 | 0.00 | 0.00 | 0.00 | 53 | 1015.0 |
| 20260504234806 | 70 | 292 | 0.0 | 0.0 | 0.00 | 0.00 | 0.00 | 50 | 1014.9 |
| 20260504234304 | 71 | 292 | 0.0 | 0.0 | 0.00 | 0.00 | 0.00 | 53 | 1015.0 |
| 20260504233800 | 72 | 292 | 0.0 | 0.0 | 0.00 | 0.00 | 0.00 | 46 | 1014.9 |
| 20260504233255 | 73 | 292 | 0.0 | 0.0 | 0.00 | 0.00 | 0.00 | 44 | 1015.0 |
| 20260504232752 | 73 | 292 | 0.0 | 0.0 | 0.00 | 0.00 | 0.00 | 43 | 1015.0 |
| 20260504232249 | 74 | 292 | 0.0 | 0.0 | 0.00 | 0.00 | 0.00 | 43 | 1015.0 |
| 20260504231746 | 74 | 292 | 0.0 | 0.0 | 0.00 | 0.00 | 0.00 | 43 | 1015.2 |
| 20260504231243 | 74 | 270 | 0.0 | 0.0 | 0.00 | 0.00 | 0.00 | 43 | 1015.1 |
| 20260504230738 | 75 | 309 | 0.0 | 0.0 | 0.00 | 0.00 | 0.00 | 40 | 1015.2 |
| 20260504230237 | 75 | 281 | 0.0 | 0.0 | 0.00 | 0.00 | 0.00 | 42 | 1015.0 |
| 20260504225735 | 76 | 16 | 2.0 | 3.0 | 0.00 | 0.00 | 0.00 | 39 | 1015.0 |
| 20260504225232 | 76 | 144 | 3.0 | 3.0 | 0.00 | 0.00 | 0.00 | 37 | 1015.0 |
| 20260504224729 | 76 | 180 | 3.0 | 3.0 | 0.00 | 0.00 | 0.00 | 38 | 1015.0 |
| 20260504224226 | 76 | 87 | 2.0 | 3.0 | 0.00 | 0.00 | 0.00 | 37 | 1015.1 |
| 20260504223722 | 76 | 153 | 1.0 | 2.0 | 0.00 | 0.00 | 0.00 | 37 | 1015.0 |
| 20260504223218 | 76 | 173 | 3.0 | 3.0 | 0.00 | 0.00 | 0.00 | 40 | 1015.0 |
| 20260504222715 | 76 | 190 | 1.0 | 2.0 | 0.00 | 0.00 | 0.00 | 40 | 1014.9 |
| 20260504222212 | 76 | 155 | 3.0 | 3.0 | 0.00 | 0.00 | 0.00 | 37 | 1015.0 |
| 20260504221709 | 76 | 171 | 0.0 | 0.0 | 0.00 | 0.00 | 0.00 | 39 | 1015.0 |
| 20260504221206 | 77 | 146 | 3.0 | 3.0 | 0.00 | 0.00 | 0.00 | 36 | 1015.1 |
| 20260504220703 | 78 | 79 | 2.0 | 3.0 | 0.00 | 0.00 | 0.00 | 35 | 1015.0 |
| 20260504220201 | 79 | 184 | 2.0 | 3.0 | 0.00 | 0.00 | 0.00 | 33 | 1015.1 |
| 20260504215656 | 79 | 191 | 3.0 | 6.0 | 0.00 | 0.00 | 0.00 | 37 | 1015.0 |
| 20260504215154 | 78 | 157 | 3.0 | 3.0 | 0.00 | 0.00 | 0.00 | 37 | 1014.8 |
| 20260504214649 | 78 | 136 | 5.0 | 6.0 | 0.00 | 0.00 | 0.00 | 36 | 1015.0 |
| 20260504214146 | 78 | 181 | 2.0 | 3.0 | 0.00 | 0.00 | 0.00 | 36 | 1014.7 |
| 20260504213643 | 79 | 246 | 4.0 | 5.0 | 0.00 | 0.00 | 0.00 | 37 | 1014.9 |
| 20260504213140 | 79 | 144 | 7.0 | 8.0 | 0.00 | 0.00 | 0.00 | 34 | 1014.6 |
| 20260504212636 | 80 | 123 | 3.0 | 5.0 | 0.00 | 0.00 | 0.00 | 35 | 1014.8 |
| 20260504212133 | 81 | 171 | 3.0 | 5.0 | 0.00 | 0.00 | 0.00 | 35 | 1014.7 |
| 20260504211631 | 80 | 226 | 2.0 | 3.0 | 0.00 | 0.00 | 0.00 | 35 | 1014.8 |
| 20260504211126 | 80 | 119 | 1.0 | 1.0 | 0.00 | 0.00 | 0.00 | 34 | 1015.0 |
| 20260504210625 | 80 | 180 | 3.0 | 5.0 | 0.00 | 0.00 | 0.00 | 31 | 1014.8 |
| 20260504210120 | 80 | 175 | 3.0 | 3.0 | 0.00 | 0.00 | 0.00 | 34 | 1014.9 |
| 20260504205618 | 80 | 149 | 2.0 | 2.0 | 0.00 | 0.00 | 0.00 | 34 | 1015.2 |
| 20260504205116 | 79 | 162 | 5.0 | 6.0 | 0.00 | 0.00 | 0.00 | 35 | 1014.9 |
| 20260504204614 | 79 | 152 | 3.0 | 5.0 | 0.00 | 0.00 | 0.00 | 34 | 1015.0 |
| 20260504204113 | 80 | 182 | 4.0 | 6.0 | 0.00 | 0.00 | 0.00 | 36 | 1015.1 |
| 20260504203611 | 80 | 148 | 5.0 | 6.0 | 0.00 | 0.00 | 0.00 | 35 | 1014.9 |
| 20260504203108 | 80 | 206 | 2.0 | 5.0 | 0.00 | 0.00 | 0.00 | 38 | 1015.1 |
| 20260504202603 | 81 | 120 | 4.0 | 5.0 | 0.00 | 0.00 | 0.00 | 37 | 1015.0 |
| 20260504202100 | 79 | 274 | 1.0 | 1.0 | 0.00 | 0.00 | 0.00 | 35 | 1015.1 |
| 20260504201557 | 80 | 222 | 2.0 | 2.0 | 0.00 | 0.00 | 0.00 | 32 | 1015.1 |
| 20260504201055 | 80 | 239 | 3.0 | 3.0 | 0.00 | 0.00 | 0.00 | 35 | 1015.3 |
| 20260504200551 | 81 | 130 | 3.0 | 3.0 | 0.00 | 0.00 | 0.00 | 33 | 1015.4 |
| 20260504200048 | 80 | 177 | 4.0 | 6.0 | 0.00 | 0.00 | 0.00 | 35 | 1015.4 |
| 20260504195544 | 80 | 174 | 3.0 | 3.0 | 0.00 | 0.00 | 0.00 | 36 | 1015.3 |
| 20260504195041 | 80 | 128 | 2.0 | 2.0 | 0.00 | 0.00 | 0.00 | 36 | 1015.3 |
| 20260504194537 | 81 | 103 | 3.0 | 3.0 | 0.00 | 0.00 | 0.00 | 34 | 1015.5 |
| 20260504194033 | 80 | 235 | 1.0 | 1.0 | 0.00 | 0.00 | 0.00 | 32 | 1015.7 |
| 20260504193529 | 80 | 52 | 0.0 | 1.0 | 0.00 | 0.00 | 0.00 | 34 | 1015.7 |
| 20260504193028 | 79 | 304 | 3.0 | 3.0 | 0.00 | 0.00 | 0.00 | 37 | 1015.7 |
| 20260504192526 | 79 | 202 | 3.0 | 3.0 | 0.00 | 0.00 | 0.00 | 34 | 1015.8 |
| 20260504192024 | 80 | 201 | 2.0 | 2.0 | 0.00 | 0.00 | 0.00 | 36 | 1015.9 |
| 20260504191522 | 80 | 215 | 1.0 | 1.0 | 0.00 | 0.00 | 0.00 | 33 | 1015.8 |
| 20260504191018 | 80 | 340 | 2.0 | 2.0 | 0.00 | 0.00 | 0.00 | 35 | 1015.9 |
| 20260504190514 | 79 | 153 | 3.0 | 3.0 | 0.00 | 0.00 | 0.00 | 34 | 1016.2 |
| 20260504190010 | 78 | 176 | 4.0 | 6.0 | 0.00 | 0.00 | 0.00 | 36 | 1016.1 |
| 20260504185507 | 78 | 139 | 2.0 | 2.0 | 0.00 | 0.00 | 0.00 | 35 | 1016.4 |
| 20260504185004 | 79 | 164 | 6.0 | 7.0 | 0.00 | 0.00 | 0.00 | 35 | 1016.3 |
| 20260504184459 | 79 | 352 | 3.0 | 5.0 | 0.00 | 0.00 | 0.00 | 35 | 1016.4 |
| 20260504183955 | 78 | 329 | 1.0 | 2.0 | 0.00 | 0.00 | 0.00 | 36 | 1016.4 |
| 20260504183452 | 78 | 287 | 0.0 | 1.0 | 0.00 | 0.00 | 0.00 | 37 | 1016.6 |
| 20260504182950 | 78 | 133 | 4.0 | 5.0 | 0.00 | 0.00 | 0.00 | 37 | 1016.7 |
| 20260504182446 | 78 | 207 | 3.0 | 3.0 | 0.00 | 0.00 | 0.00 | 33 | 1016.8 |
| 20260504181944 | 78 | 355 | 0.0 | 1.0 | 0.00 | 0.00 | 0.00 | 33 | 1016.7 |
| 20260504181441 | 78 | 101 | 3.0 | 5.0 | 0.00 | 0.00 | 0.00 | 33 | 1016.9 |
| 20260504180939 | 77 | 203 | 1.0 | 2.0 | 0.00 | 0.00 | 0.00 | 36 | 1016.7 |
| 20260504180438 | 78 | 149 | 3.0 | 5.0 | 0.00 | 0.00 | 0.00 | 34 | 1016.7 |
| 20260504175936 | 78 | 111 | 3.0 | 5.0 | 0.00 | 0.00 | 0.00 | 35 | 1016.9 |
| 20260504175433 | 77 | 169 | 1.0 | 2.0 | 0.00 | 0.00 | 0.00 | 37 | 1016.8 |
| 20260504174930 | 77 | 170 | 2.0 | 2.0 | 0.00 | 0.00 | 0.00 | 37 | 1017.0 |
| 20260504174427 | 77 | 206 | 3.0 | 3.0 | 0.00 | 0.00 | 0.00 | 35 | 1017.0 |
| 20260504173925 | 76 | 308 | 1.0 | 2.0 | 0.00 | 0.00 | 0.00 | 39 | 1016.9 |
| 20260504173421 | 76 | 126 | 5.0 | 6.0 | 0.00 | 0.00 | 0.00 | 35 | 1017.0 |
| 20260504172919 | 77 | 134 | 5.0 | 7.0 | 0.00 | 0.00 | 0.00 | 35 | 1017.1 |
| 20260504172415 | 77 | 218 | 2.0 | 2.0 | 0.00 | 0.00 | 0.00 | 36 | 1017.1 |
| 20260504171911 | 77 | 121 | 5.0 | 6.0 | 0.00 | 0.00 | 0.00 | 37 | 1017.2 |
| 20260504171409 | 77 | 146 | 2.0 | 2.0 | 0.00 | 0.00 | 0.00 | 39 | 1017.4 |
| 20260504170905 | 77 | 232 | 1.0 | 1.0 | 0.00 | 0.00 | 0.00 | 36 | 1017.3 |
| 20260504170402 | 77 | 194 | 2.0 | 3.0 | 0.00 | 0.00 | 0.00 | 38 | 1017.3 |
| 20260504160321 | 74 | 319 | 2.0 | 3.0 | 0.00 | 0.00 | 0.00 | 39 | 1017.9 |
| 20260504150745 | 73 | 182 | 3.0 | 5.0 | 0.00 | 0.00 | 0.00 | 42 | 1018.4 |
| 20260504150242 | 73 | 192 | 2.0 | 2.0 | 0.00 | 0.00 | 0.00 | 41 | 1018.4 |
| 20260504141212 | 67 | 60 | 3.0 | 3.0 | 0.00 | 0.00 | 0.00 | 56 | 1018.3 |
| 20260504140709 | 66 | 17 | 1.0 | 2.0 | 0.00 | 0.00 | 0.00 | 56 | 1018.5 |
| 20260504140204 | 66 | 212 | 0.0 | 0.0 | 0.00 | 0.00 | 0.00 | 64 | 1018.4 |